{"data":{"norad_id":66374,"epoch":"2026-05-24T23:29:27.766176Z","epoch_age_seconds":77112,"freshness":"FRESH","line1":"1 66374U 25254AC  26144.97879359  .00016391  00000+0  56408-3 0  9993","line2":"2 66374  53.1580 235.3683 0001335  81.7245 278.3907 15.30213780 30693","mean_motion":15.3021378,"eccentricity":0.0001335,"inclination_deg":53.158,"raan_deg":235.3683,"arg_perigee_deg":81.7245,"mean_anomaly_deg":278.3907,"bstar":0.00056408,"rev_number":3069,"period_min":94.104498261674,"perigee_km":474.25900812345,"apogee_km":476.08884214046,"semimajor_km":6853.310925132,"source":"CELESTRAK","updated_at":"2026-05-25T13:38:21.199415Z"}}